Location: Dittelspoint
(48.7198°N, 10.7214°E)
Time: 18:37:13
(UTC+00:00)

STARLINK-1143 - Pass Details

Date: 09 April 2020
Orbit: 549 x 550 km, 53.0° (Epoch: 25 May)

Event Time Altitude Azimuth Distance (km) Brightness Sun altitude
Rises 19:54:05 0° 295° (WNW) 2,732 8.8 -17.8°
Reaches altitude 10° 19:56:19 10° 293° (WNW) 1,835 7.5 -18.1°
Maximum altitude 20:00:28 71° 210° (SSW) 588 3.6 -18.7°
Enters shadow 20:01:32 47° 142° (SE) 738 3.8 -18.8°
